• Processing (Info)

  • MPEC 2014-A07 : 2013 YT102

    The following Minor Planet Electronic Circular may be linked-to from your own Web pages, but must not otherwise be redistributed electronically.

    A form allowing access to any MPEC is at the bottom of this page.


    Read MPEC 2014-A06 Read MPEC 2014-A08


    M.P.E.C. 2014-A07                                Issued 2014 Jan. 2, 21:09 UT
    
         The Minor Planet Electronic Circulars contain information on unusual
             minor planets and routine data on comets.  They are published
       on behalf of Commission 20 of the International Astronomical Union by the
              Minor Planet Center, Smithsonian Astrophysical Observatory,
                              Cambridge, MA 02138, U.S.A.
    
                 Prepared using the Tamkin Foundation Computer Network
    
                                  MPC@CFA.HARVARD.EDU
                URL http://www.minorplanetcenter.net/    ISSN 1523-6714
    
                                      2013 YT102
    
    Observations:
         K13YA2T* C2013 12 31.23563 04 59 55.55 +22 52 15.5          18.4 VqEA007G96
         K13YA2T  C2013 12 31.24468 04 59 48.95 +22 49 45.9          19.3 VqEA007G96
         K13YA2T  C2013 12 31.25373 04 59 42.36 +22 47 16.6          19.2 VqEA007G96
         K13YA2T  C2013 12 31.26279 04 59 35.75 +22 44 46.2          19.0 VqEA007G96
         K13YA2T  C2013 12 31.26936 04 59 30.97 +22 42 57.1          19.3 VqEA007G96
         K13YA2T  C2013 12 31.26976 04 59 30.69 +22 42 50.5          19.2 VqEA007G96
         K13YA2T  C2013 12 31.27015 04 59 30.41 +22 42 44.0          19.2 VqEA007G96
         K13YA2T  C2013 12 31.27055 04 59 30.10 +22 42 37.4          19.2 VqEA007G96
         K13YA2T  C2013 12 31.33184 04 58 45.77 +22 25 31.4          19.3 VqEA007G96
         K13YA2T  C2013 12 31.33214 04 58 45.54 +22 25 26.2          19.3 VqEA007G96
         K13YA2T  C2013 12 31.33244 04 58 45.33 +22 25 21.1          19.2 VqEA007G96
         K13YA2T  C2013 12 31.33274 04 58 45.11 +22 25 15.9          19.5 VqEA007G96
         K13YA2T KC2013 12 31.37051 04 58 18.22 +22 14 38.9          19.4 RoEA007291
         K13YA2T KC2013 12 31.37088 04 58 17.97 +22 14 32.8          19.3 RoEA007291
         K13YA2T KC2013 12 31.37120 04 58 17.73 +22 14 27.3          19.3 RoEA007291
         K13YA2T  C2013 12 31.72561 04 54 38.28 +20 32 50.7          19.3 VoEA007033
         K13YA2T  C2013 12 31.74005 04 54 28.33 +20 28 44.2          19.4 VoEA007033
         K13YA2T  C2013 12 31.76862 04 54 08.27 +20 20 31.6          19.6 VoEA007033
         K13YA2T  C2013 12 31.78305 04 53 58.18 +20 16 23.6          19.6 VoEA007033
         K13YA2T KC2013 12 31.81330 04 53 38.17 +20 07 32.0                qEA007J95
         K13YA2T KC2013 12 31.81745 04 53 35.28 +20 06 20.3                qEA007J95
         K13YA2T KC2013 12 31.82156 04 53 32.32 +20 05 08.3          19.7 RqEA007J95
         K13YA2T  C2013 12 31.84270 04 53 15.60 +19 59 06.5          19.5 VoEA007033
         K13YA2T tC2013 12 31.85519 04 53 06.37 +19 55 34.1                qEA007246
         K13YA2T tC2013 12 31.85815 04 53 04.27 +19 54 42.9                qEA007246
         K13YA2T  C2013 12 31.86051 04 53 02.85 +19 53 56.1          19.4 VoEA007033
         K13YA2T KC2014 01 01.02449 04 51 20.55 +19 05 42.9          19.2 RqEA007H36
         K13YA2T KC2014 01 01.03020 04 51 16.42 +19 04 04.6          18.9 RqEA007H36
         K13YA2T KC2014 01 01.03571 04 51 12.58 +19 02 24.9          18.9 RqEA007H36
         K13YA2T  C2014 01 01.16461 04 49 42.16 +18 24 23.4          19.2 VqEA007G96
         K13YA2T  C2014 01 01.16971 04 49 38.40 +18 22 51.8          19.3 VqEA007G96
         K13YA2T  C2014 01 01.17480 04 49 34.64 +18 21 20.2          19.0 VqEA007G96
         K13YA2T  C2014 01 01.17991 04 49 30.86 +18 19 48.4          19.4 VqEA007G96
         K13YA2T  C2014 01 01.18396 04 49 27.89 +18 18 35.2          19.2 VqEA007G96
         K13YA2T KC2014 01 01.18401304 49 23.52 +18 18 13.7          20.2 VuEA007H21
         K13YA2T  C2014 01 01.18427 04 49 27.65 +18 18 29.6          19.5 VqEA007G96
         K13YA2T  C2014 01 01.18457 04 49 27.42 +18 18 24.1          19.1 VqEA007G96
         K13YA2T  C2014 01 01.18488 04 49 27.20 +18 18 18.5          19.3 VqEA007G96
         K13YA2T KC2014 01 01.18624404 49 21.91 +18 17 33.2          20.2 VuEA007H21
         K13YA2T KC2014 01 01.18837404 49 20.33 +18 16 55.1          19.9 VuEA007H21
         K13YA2T KC2014 01 01.19049404 49 18.78 +18 16 16.1          20.4 VuEA007H21
         K13YA2T KC2014 01 01.19279004 49 17.05 +18 15 34.7          19.9 VuEA007H21
         K13YA2T KC2014 01 01.19925 04 49 15.75 +18 13 59.6          18.7 RqEA007448
         K13YA2T KC2014 01 01.21830 04 49 01.64 +18 08 14.6          19.6 RqEA007448
         K13YA2T KC2014 01 01.23649 04 48 48.10 +18 02 42.6          19.3 RqEA007448
         K13YA2T KC2014 01 02.10660 04 39 07.32 +13 28 35.5          19.9 RqEA007448
         K13YA2T KC2014 01 02.13129 04 38 48.98 +13 20 36.0          19.9 RqEA007448
         K13YA2T KC2014 01 02.15726 04 38 29.53 +13 12 09.6          20.5 RqEA007448
         K13YA2T HC2014 01 02.22525 04 37 39.29 +12 49 56.4          19.3 RoEA007291
         K13YA2T HC2014 01 02.22541 04 37 39.21 +12 49 53.7          19.4 RoEA007291
         K13YA2T HC2014 01 02.22555 04 37 39.08 +12 49 50.7          19.3 RoEA007291
    
    Observer details:
    033 Karl Schwarzschild Observatory, Tautenburg.  Observer B. Stecklum.  1.34-m
        f/4 Schmidt + CCD.
    246 Klet Observatory-KLENOT.  Observers M. Tichy, J. Ticha, M. Honkova,
        M. Kocer.  Measurer M. Tichy.  1.06-m KLENOT Telescope + CCD.
    291 LPL/Spacewatch II.  Observers T. H. Bressi, R. A. Mastaler.  1.8-m f/2.7
        reflector + CCD.
    448 Desert Moon Observatory.  Observer B. L. Stevens.  0.3-m
        Schmidt-Cassegrain + CCD.
    G96 Mt. Lemmon Survey.  Observer R. A. Kowalski.  Measurers A. Boattini,
        E. J. Christensen, A. R. Gibbs, A. D. Grauer, R. E. Hill, J. A. Johnson,
        R. A. Kowalski, S. M. Larson, F. C. Shelly.  1.5-m reflector + CCD.
    H21 Astronomical Research Observatory, Westfield.  Observer R. Holmes.
        Measurers T. Linder, S. Foglia, L. Buzzi, T. Vorobjov.  0.61-m f/4.5
        astrograph + CCD.
    H36 Sandlot Observatory, Scranton.  Observer G. Hug.  0.56-m reflector + CCD.
    J95 Great Shefford.  Observer P. Birtwhistle.  0.40-m f/6.0 Schmidt-Cassegrain
        + CCD.
    
    Orbital elements:
    2013 YT102                                               Earth MOID = 0.0315 AU
    Epoch 2013 Nov. 4.0 TT = JDT 2456600.5                  MPC
    M 222.14929              (2000.0)            P               Q
    n   0.96793583     Peri.  286.22729     -0.88506316     +0.41093046
    a   1.0121348      Node   278.46642     -0.29566430     -0.85908609
    e   0.2084262      Incl.   12.77009     -0.35950776     -0.30513479
    P   1.02           H   24.9           G   0.15           U   7
    Residuals in seconds of arc
    131231 G96  0.2+  0.3+    131231 033  0.8-  0.5-    140101 H21  0.0   0.0
    131231 G96  0.1+  0.0     131231 033  0.4+  0.6+    140101 G96  0.0   0.1+
    131231 G96  0.2+  0.3+    131231 J95  0.1-  0.3-    140101 G96  0.1-  0.0
    131231 G96  0.0   0.0     131231 J95  0.4+  0.1-    140101 G96  0.1+  0.0
    131231 G96  0.0   0.1-    131231 J95  0.3-  0.8-    140101 H21  0.5+  0.0
    131231 G96  0.2+  0.0     131231 033  0.7-  0.2-    140101 H21  0.3+  0.6+
    131231 G96  0.2+  0.1-    131231 246  0.2-  0.5-    140101 H21  0.5+  0.1+
    131231 G96  0.0   0.0     131231 246  0.3+  0.2+    140101 H21  0.1-  0.5+
    131231 G96  0.3+  0.0     131231 033  0.1-  1.0+    140101 448  0.2-  0.0
    131231 G96  0.1+  0.1-    140101 H36  0.5+  0.0     140101 448  0.4+  0.7+
    131231 G96  0.2+  0.1-    140101 H36  1.0-  2.2+    140101 448  0.1+  0.0
    131231 G96  0.1+  0.3-    140101 H36  0.3-  0.4-    140102 448  0.2+  0.3-
    131231 291  0.2-  0.1+    140101 G96  0.0   0.0     140102 448  0.0   0.1-
    131231 291  0.0   0.3+    140101 G96  0.0   0.1+    140102 448  0.4-  0.2-
    131231 291  0.2-  0.2+    140101 G96  0.1-  0.0     140102 291  0.3-  0.2-
    131231 033  0.6-  0.0     140101 G96  0.2-  0.3+    140102 291  0.3+  0.2+
    131231 033  0.3+  0.9+    140101 G96  0.2+  0.1+    140102 291  0.0   0.0
    
    Ephemeris:
    2013 YT102               a,e,i = 1.01, 0.21, 13                  q = 0.8012
    Date    TT    R. A. (2000) Decl.     Delta      r     Elong.  Phase     V
    2013 12 03    07 32 37.8 +55 36 08   0.1811  1.1180   133.4    39.9    23.0
    ...
    2013 12 18    06 49 37.9 +51 10 59   0.1017  1.0727   149.3    27.9    21.3
    ...
    2013 12 26    05 52 36.5 +40 23 58   0.06568 1.0462   162.1    16.8    20.0
    ...
    2014 01 01    04 51 28.5 +19 14 39   0.04685 1.0254   153.4    25.5    19.5
    2014 01 02    04 40 13.6 +14 04 34   0.04504 1.0219   148.2    30.4    19.5
    2014 01 03    04 28 49.4 +08 30 59   0.04376 1.0184   142.5    36.0    19.6
    ...
    2014 01 09    03 20 26.8 -25 02 25   0.04761 0.9969   105.2    72.2    20.8
    ...
    2014 01 17    01 59 55.6 -48 59 16   0.07297 0.9678    75.3   100.5    22.8
    ...
    2014 02 01    00 07 26.4 -60 22 21   0.1359  0.9138    54.8   118.2    25.1
    
    A. U. Tomatic                (C) Copyright 2014 MPC           M.P.E.C. 2014-A07
    

    Read MPEC 2014-A06 Read MPEC 2014-A08


    MPEC number:

    Enter an MPEC number in one of the following forms:

    • 1997-B01 (the full form)
    • J97B01 (the packed version of the full form)
    • B01 (the abbreviated form)